This is the latest recevied weather packets stored in our database for station/object DL1VED. If no packets are shown the sender has not sent any weather packets the latest 10 day(s).
| Time | Temp. | Humidity | Pressure | Rain* | Wind** | Luminosity | Snow |
|---|---|---|---|---|---|---|---|
| 1778162345 | 15.56° C | 58% | 1015.2 hPa | 0 mm | - | - | - |
| 1778161445 | 15.56° C | 58% | 1015.2 hPa | 0 mm | - | - | - |
| 1778160545 | 15° C | 59% | 1015.2 hPa | 0 mm | - | - | - |
| 1778159645 | 15° C | 62% | 1015.3 hPa | 0 mm | - | - | - |
| 1778158745 | 14.44° C | 63% | 1015.4 hPa | 0 mm | - | - | - |
| 1778157845 | 14.44° C | 65% | 1015.3 hPa | 0 mm | - | - | - |
| 1778156945 | 13.89° C | 66% | 1015.3 hPa | 0 mm | - | - | - |
| 1778156045 | 13.33° C | 68% | 1015.2 hPa | 0 mm | - | - | - |
| 1778155145 | 13.33° C | 68% | 1015.2 hPa | 0 mm | - | - | - |
| 1778154245 | 13.33° C | 66% | 1015.1 hPa | 0 mm | - | - | - |
| 1778153345 | 13.33° C | 65% | 1015 hPa | 0 mm | - | - | - |
| 1778152445 | 13.89° C | 63% | 1015 hPa | 0 mm | - | - | - |
| 1778151545 | 13.33° C | 65% | 1015 hPa | 0 mm | - | - | - |
| 1778150645 | 13.33° C | 66% | 1014.8 hPa | 0 mm | - | - | - |
| 1778149745 | 13.33° C | 65% | 1014.8 hPa | 0 mm | - | - | - |
| 1778148845 | 13.33° C | 66% | 1014.8 hPa | 0 mm | - | - | - |
| 1778147945 | 12.78° C | 65% | 1014.8 hPa | 0 mm | - | - | - |
| 1778147045 | 12.78° C | 67% | 1014.7 hPa | 0 mm | - | - | - |
| 1778146145 | 12.22° C | 70% | 1014.6 hPa | 0 mm | - | - | - |
| 1778145245 | 12.22° C | 70% | 1014.4 hPa | 0 mm | - | - | - |
| 1778144345 | 11.67° C | 72% | 1014.3 hPa | 0 mm | - | - | - |
| 1778143445 | 11.11° C | 73% | 1014.3 hPa | 0 mm | - | - | - |
| 1778142545 | 11.11° C | 75% | 1014.2 hPa | 0 mm | - | - | - |
| 1778141645 | 10.56° C | 76% | 1014.1 hPa | 0 mm | - | - | - |
| 1778140745 | 10.56° C | 77% | 1013.9 hPa | 0 mm | - | - | - |
* Rain latest hour (hover to see other rain measurements)
** Current wind speed in m/s (hover to see current wind gust speed)